"2009-11-21 00:00:00",1434526,3.026,142.5,1.645,0.455,8.99,103.4454,8.1,9.19,33.19,0,110,13.41,8.88,104.5
"2009-11-21 00:00:30",1434527,3.733,149.9,6.604,1.18,10.47,103.4234,8.04,9.28,32.06,0,110,13.41,8.82,111.9
"2009-11-21 00:01:00",1434528,4.843,153.2,7.06,1.267,11.76,103.422,8.04,9.22,30.6,0,110,13.41,8.82,115.2
"2009-11-21 00:01:30",1434529,4.604,150.4,6.334,1.275,10.98,103.4226,8.04,9.22,30.2,0,110,13.41,8.82,112.4
"2009-11-21 00:02:00",1434530,3.475,144.1,0.457,0.033,8.66,103.4223,8.04,9.06,30.27,0,110,13.45,8.82,106.1
"2009-11-21 00:02:30",1434531,4.492,145.9,6.447,1.298,10.42,103.4127,8.01,9.2,31.52,0,110,13.41,8.79,107.9
"2009-11-21 00:03:00",1434532,4.612,147.4,6.786,1.271,11.16,103.4036,7.989,9.22,32.87,0,110,13.41,8.77,109.4
"2009-11-21 00:03:30",1434533,4.637,148,6.877,1.28,11.17,103.3904,7.955,9.19,33.25,0,110,13.41,8.74,110.0
"2009-11-21 00:04:00",1434534,4.061,141.9,6.286,1.168,10.29,103.3887,7.951,9.09,33.66,0,110,13.41,8.73,103.9
"2009-11-21 00:04:30",1434535,4.641,144.8,6.758,1.308,11.46,103.3887,7.951,9.27,34.75,0,110,13.41,8.73,106.8
"2009-11-21 00:05:00",1434536,4.178,141.8,6.372,1.248,9.98,103.3887,7.951,9.07,35.13,0,110,13.41,8.73,103.8
"2009-11-21 00:05:30",1434537,3.696,139.5,5.434,0.992,9.44,103.3887,7.951,9.17,35.87,0,110,13.41,8.73,101.5
"2009-11-21 00:06:00",1434538,3.871,140.9,6.099,1.189,9.64,103.3867,7.946,9.02,36.54,0,110,13.41,8.73,102.9
"2009-11-21 00:06:30",1434539,5.178,149.1,6.573,1.17,12.32,103.3785,7.925,9.1,36.61,0,110,13.41,8.70,111.1
"2009-11-21 00:07:00",1434540,3.241,137.8,5.972,0.871,9.86,103.3638,7.887,9.13,36.48,0,110,13.41,8.67,99.8
"2009-11-21 00:07:30",1434541,5.051,146.7,6.563,1.194,12.14,103.3548,7.864,9.07,36.29,0,110,13.41,8.64,108.7
"2009-11-21 00:08:00",1434542,4.518,145.1,6.634,1.272,11.27,103.3548,7.864,9.13,35.47,0,110,13.41,8.64,107.1
"2009-11-21 00:08:30",1434543,4.303,145,6.949,1.252,10.93,103.3548,7.864,9.06,34.42,0,110,13.41,8.64,107.0
"2009-11-21 00:09:00",1434544,3.51,141.3,3.612,0.77,8.89,103.3548,7.864,8.92,34.35,0,110,13.41,8.64,103.3
"2009-11-21 00:09:30",1434545,4.301,142.9,6.376,1.229,10.7,103.3548,7.864,9.05,35.06,0,110,13.42,8.64,104.9
"2009-11-21 00:10:00",1434546,3.7,137.5,4.177,0.937,9.42,103.3548,7.864,8.95,35.17,0,110,13.41,8.64,99.5
"2009-11-21 00:10:30",1434547,3.099,134.3,3.176,0.453,9.26,103.3551,7.865,9.01,35.74,0,110,13.41,8.64,96.3
"2009-11-21 00:11:00",1434548,4.556,140.3,7.086,1.205,12.26,103.3418,7.831,9.09,36.37,0,110,13.41,8.61,102.3
"2009-11-21 00:11:30",1434549,4.501,138.1,7.235,1.276,11.81,103.3246,7.787,9.1,36.83,0,110,13.41,8.57,100.1
"2009-11-21 00:12:00",1434550,3.45,134.7,5.894,1.198,9.36,103.3221,7.781,8.93,36.14,0,110,13.41,8.56,96.7
"2009-11-21 00:12:30",1434551,2.746,133.6,2.859,0.204,8.21,103.3221,7.781,8.86,35.3,0,110,13.45,8.56,95.6
"2009-11-21 00:13:00",1434552,3.958,138.7,7.196,1.316,10.33,103.325,7.788,8.98,35.34,0,110,13.41,8.57,100.7
"2009-11-21 00:13:30",1434553,3.538,136.7,6.472,1.12,10.2,103.3259,7.79,8.98,35.44,0,110,13.41,8.57,98.7
"2009-11-21 00:14:00",1434554,3.868,139.7,6.247,1.241,10.39,103.3288,7.798,8.85,34.93,0,110,13.41,8.58,101.7
"2009-11-21 00:14:30",1434555,4.322,147.1,7.022,1.284,12.03,103.3306,7.803,9.01,33.79,0,110,13.41,8.58,109.1
"2009-11-21 00:15:00",1434556,4.602,151.4,6.276,1.247,12.3,103.318,7.77,9.02,32,0,110,13.42,8.55,113.4
"2009-11-21 00:15:30",1434557,4.075,146.9,7.357,1.327,10.98,103.3079,7.744,8.95,31.26,0,110,13.42,8.52,108.9
"2009-11-21 00:16:00",1434558,2.678,138.2,2.196,0.103,8.11,103.3071,7.743,8.8,32.29,0,110,13.45,8.52,100.2
"2009-11-21 00:16:30",1434559,2.906,136.4,4.867,0.923,8.66,103.3118,7.754,8.85,34.17,0,110,13.42,8.53,98.4
"2009-11-21 00:17:00",1434560,3.514,141.1,6.8,1.331,10.28,103.315,7.763,8.88,34.22,0,110,13.42,8.54,103.1
"2009-11-21 00:17:30",1434561,2.477,136.2,3.261,0.137,8.67,103.3176,7.769,8.78,34.13,0,110,13.46,8.55,98.2
"2009-11-21 00:18:00",1434562,3.334,142.3,9.16,1.275,10.89,103.32,7.775,8.95,34.5,0,110,13.42,8.55,104.3
"2009-11-21 00:18:30",1434563,4.071,141.2,6.515,1.163,12.2,103.3203,7.776,9,34.89,0,110,13.43,8.56,103.2
"2009-11-21 00:19:00",1434564,3.32,138.6,6.869,1.204,10.37,103.3206,7.777,8.91,34.88,0,110,13.43,8.56,100.6
"2009-11-21 00:19:30",1434565,3.269,143.6,5.862,1.012,10.33,103.3164,7.766,8.89,33.03,0,110,13.43,8.55,105.6
"2009-11-21 00:20:00",1434566,2.399,143.3,9.89,0.93,8.91,103.3085,7.746,8.85,32.61,0,110,13.43,8.53,105.3
"2009-11-21 00:20:30",1434567,2.909,146.8,7.324,1.197,9.17,103.2946,7.711,8.79,33.46,0,110,13.43,8.49,108.8
"2009-11-21 00:21:00",1434568,3.495,146,6.924,1.279,10.4,103.2884,7.695,8.82,34.55,0,110,13.43,8.47,108.0
"2009-11-21 00:21:30",1434569,3.27,142,5.86,1.138,9.78,103.2881,7.694,8.73,33.31,0,110,13.43,8.47,104.0
"2009-11-21 00:22:00",1434570,3.217,139.1,5.737,1.252,10.06,103.2881,7.694,8.83,34.68,0,110,13.43,8.47,101.1
"2009-11-21 00:22:30",1434571,4.973,149,4.536,0.922,13.14,103.2881,7.694,8.97,34.02,0,110,13.43,8.47,111.0
"2009-11-21 00:23:00",1434572,4.601,149.2,6.511,1.183,11.94,103.2881,7.694,8.82,33.37,0,110,13.43,8.47,111.2
"2009-11-21 00:23:30",1434573,2.76,141.8,0.63,0.037,8.6,103.2859,7.688,8.68,30.83,0,110,13.46,8.47,103.8
"2009-11-21 00:24:00",1434574,3.738,150.1,6.484,1.285,10.56,103.2799,7.673,8.75,29.03,0,110,13.43,8.45,112.1
"2009-11-21 00:24:30",1434575,3.684,150.7,6.764,1.322,10.69,103.2715,7.651,8.8,28.2,0,110,13.43,8.43,112.7
"2009-11-21 00:25:00",1434576,2.563,145.7,0.426,0.047,8.87,103.2585,7.618,8.66,27.68,0,110,13.46,8.40,107.7
"2009-11-21 00:25:30",1434577,2.584,145.3,0.858,0.057,9.15,103.2542,7.607,8.66,27.17,0,110,13.47,8.39,107.3
"2009-11-21 00:26:00",1434578,4.035,152.4,7.687,1.413,12.1,103.2542,7.607,8.88,28.09,0,110,13.43,8.39,114.4
"2009-11-21 00:26:30",1434579,4.392,152.4,7.287,1.259,12.41,103.2542,7.607,8.86,28.23,0,110,13.43,8.39,114.4
"2009-11-21 00:27:00",1434580,3.821,145.6,7.633,1.243,11.09,103.2542,7.607,8.79,30.15,0,110,13.43,8.39,107.6
"2009-11-21 00:27:30",1434581,2.917,143.6,3.232,0.888,8.83,103.2542,7.607,8.65,30.45,0,110,13.43,8.39,105.6
"2009-11-21 00:28:00",1434582,3.795,148.2,6.367,1.373,10.35,103.2542,7.607,8.78,29.51,0,110,13.43,8.39,110.2
"2009-11-21 00:28:30",1434583,3.051,139.7,1.518,0.082,8.58,103.2542,7.607,8.64,28.28,0,110,13.46,8.39,101.7
"2009-11-21 00:29:00",1434584,2.977,142,1.198,0.13,8.82,103.2545,7.608,8.63,28.62,0,110,13.46,8.39,104.0
"2009-11-21 00:29:30",1434585,3.667,144.3,5.326,1.175,10.06,103.2559,7.612,8.64,28.84,0,110,13.43,8.39,106.3
"2009-11-21 00:30:00",1434586,3.905,147.5,8.61,1.424,11.81,103.2627,7.629,8.82,29.5,0,110,13.43,8.41,109.5
"2009-11-21 00:30:30",1434587,5.094,155.1,6.654,0.911,13.49,103.2701,7.648,8.91,28.59,0,110,13.43,8.43,117.1
"2009-11-21 00:31:00",1434588,3.654,149.7,6.434,1.223,11.27,103.2763,7.664,8.85,28.94,0,110,13.43,8.44,111.7
"2009-11-21 00:31:30",1434589,3.829,151,6.964,1.23,10.54,103.2797,7.672,8.79,28.49,0,109.9,13.43,8.45,113.0
"2009-11-21 00:32:00",1434590,3.408,148.6,5.2,1.069,9.66,103.2816,7.677,8.8,28.17,0,109.9,13.44,8.46,110.6
"2009-11-21 00:32:30",1434591,2.936,143.2,1.967,0.071,8.5,103.2876,7.693,8.67,28.06,0,109.9,13.47,8.47,105.2
"2009-11-21 00:33:00",1434592,2.989,143.5,1.932,0.109,8.91,103.289,7.696,8.68,28.85,0,110,13.47,8.48,105.5
"2009-11-21 00:33:30",1434593,4.067,149.8,6.955,1.275,11.58,103.2919,7.704,8.74,28.83,0,110,13.44,8.48,111.8
"2009-11-21 00:34:00",1434594,4.361,150.6,7.582,1.277,12.52,103.2919,7.704,8.92,28.83,0,110,13.44,8.48,112.6
"2009-11-21 00:34:30",1434595,4.532,152.1,5.859,1.195,12.84,103.2931,7.707,8.92,28.75,0,110,13.44,8.49,114.1
"2009-11-21 00:35:00",1434596,3.359,145.9,6.648,1.091,9.95,103.2946,7.71,8.82,28.5,0,110,13.44,8.49,107.9
"2009-11-21 00:35:30",1434597,3.579,145.9,6.684,1.207,10.41,103.2957,7.713,8.84,28.99,0,110,13.44,8.49,107.9
"2009-11-21 00:36:00",1434598,2.485,141.3,1.428,0.066,8.28,103.2951,7.712,8.71,29.64,0,110,13.47,8.49,103.3
"2009-11-21 00:36:30",1434599,2.532,141.2,1.651,0.094,8.38,103.2975,7.718,8.72,29.65,0,110,13.47,8.50,103.2
"2009-11-21 00:37:00",1434600,2.667,138.8,1.086,0.052,8.96,103.3031,7.732,8.74,29.1,0,110,13.48,8.51,100.8
"2009-11-21 00:37:30",1434601,3.349,143.7,6.022,1.112,10.95,103.3153,7.763,8.95,29.21,0,110,13.44,8.54,105.7
"2009-11-21 00:38:00",1434602,4.925,150.3,3.119,0.828,13.75,103.3218,7.78,9.07,29.35,0,110,13.44,8.56,112.3
"2009-11-21 00:38:30",1434603,4.379,149.1,5.923,1.181,12.57,103.3275,7.794,9.01,29.27,0,110,13.44,8.57,111.1
"2009-11-21 00:39:00",1434604,3.468,144.5,6.567,1.288,10.81,103.3329,7.808,8.89,29.07,0,110,13.44,8.59,106.5
"2009-11-21 00:39:30",1434605,2.769,137.9,3.98,0.796,8.47,103.3384,7.822,8.76,29.22,0,110,13.44,8.60,99.9
"2009-11-21 00:40:00",1434606,2.44,135.3,1.451,0.076,7.983,103.341,7.829,8.76,29.64,0,110,13.48,8.61,97.3
"2009-11-21 00:40:30",1434607,2.246,131.7,0.907,0.045,8.44,103.3428,7.834,8.76,30.41,0,110,13.48,8.61,93.7
"2009-11-21 00:41:00",1434608,2.34,131.1,1.39,0.135,8.87,103.3451,7.84,8.82,30.84,0,110,13.48,8.62,93.1
"2009-11-21 00:41:30",1434609,4.293,141,6.769,1.224,12.32,103.3451,7.84,8.92,30.62,0,110,13.44,8.62,103.0
"2009-11-21 00:42:00",1434610,4.88,143.3,4.843,0.537,14.15,103.3448,7.839,9.08,30.89,0,110,13.44,8.62,105.3
"2009-11-21 00:42:30",1434611,4.376,140.6,6.185,1.111,12.29,103.3463,7.843,8.94,30.73,0,110,13.44,8.62,102.6
"2009-11-21 00:43:00",1434612,2.885,131.9,4.664,0.912,9.71,103.3472,7.845,8.93,30.81,0,110,13.44,8.62,93.9
"2009-11-21 00:43:30",1434613,2.819,129.6,5.697,1.084,8.73,103.3486,7.849,8.79,31.05,0,110,13.44,8.63,91.6
"2009-11-21 00:44:00",1434614,2.244,127.4,1.118,0.074,7.99,103.348,7.847,8.79,31.43,0,110,13.47,8.63,89.4
"2009-11-21 00:44:30",1434615,2.208,126.8,1.292,0.037,8.25,103.3452,7.84,8.78,31.56,0,110,13.47,8.62,88.8
"2009-11-21 00:45:00",1434616,2.234,124.5,2.001,0.056,8.7,103.3424,7.833,8.82,31.99,0,110,13.48,8.61,86.5
"2009-11-21 00:45:30",1434617,4.192,132.3,6.243,1.149,12.78,103.34,7.827,8.99,32.29,0,110,13.44,8.61,94.3
"2009-11-21 00:46:00",1434618,4.531,134.8,4.552,0.913,13.33,103.3356,7.815,9.06,32.73,0,110,13.44,8.59,96.8
"2009-11-21 00:46:30",1434619,3.6,129.6,6.22,1.284,11.21,103.3245,7.787,8.99,32.95,0,110,13.44,8.57,91.6
"2009-11-21 00:47:00",1434620,3.256,129.4,6.022,1.231,9.96,103.3226,7.782,8.92,33.16,0,110,13.44,8.56,91.4
"2009-11-21 00:47:30",1434621,2.291,125.4,0.889,0.036,7.852,103.3226,7.782,8.77,33.08,0,110,13.48,8.56,87.4
"2009-11-21 00:48:00",1434622,2.294,125.9,0.69,0.046,7.884,103.3232,7.783,8.77,33.18,0,110,13.48,8.56,87.9
"2009-11-21 00:48:30",1434623,2.419,125.2,1.713,0.061,8.33,103.3232,7.783,8.77,33.1,0,110,13.48,8.56,87.2
"2009-11-21 00:49:00",1434624,3.742,136.1,7.051,1.279,10.76,103.3229,7.783,8.78,33,0,110,13.45,8.56,98.1
"2009-11-21 00:49:30",1434625,4.634,141.1,6.056,1.21,12.55,103.3226,7.782,8.98,32.93,0,110,13.45,8.56,103.1
"2009-11-21 00:50:00",1434626,4.679,142.6,5.464,0.978,13.27,103.3124,7.756,9.06,33.5,0,110,13.45,8.54,104.6
"2009-11-21 00:50:30",1434627,4.043,139.7,6.585,1.251,10.87,103.2989,7.721,8.85,33.35,0,110,13.45,8.50,101.7
"2009-11-21 00:51:00",1434628,3.151,136.2,5.498,0.997,9.49,103.2895,7.698,8.87,33,0,110,13.45,8.48,98.2
"2009-11-21 00:51:30",1434629,2.465,134.7,1.569,0.042,7.824,103.2893,7.697,8.7,32.53,0,110,13.48,8.48,96.7
"2009-11-21 00:52:00",1434630,2.511,134.6,0.327,0.026,8.12,103.2893,7.697,8.71,31.97,0,110,13.48,8.48,96.6
"2009-11-21 00:52:30",1434631,2.673,134.5,0.767,0.105,8.84,103.2893,7.697,8.69,31.62,0,110,13.48,8.48,96.5
"2009-11-21 00:53:00",1434632,4.244,141.1,6.877,1.32,11.36,103.2893,7.697,8.78,31.29,0,110,13.46,8.48,103.1
"2009-11-21 00:53:30",1434633,4.981,141.7,5.115,1.044,13.45,103.2873,7.692,8.96,31.42,0,110,13.46,8.47,103.7
"2009-11-21 00:54:00",1434634,4.763,141.4,6.193,1.096,12.83,103.2712,7.651,9,32.17,0,110,13.46,8.43,103.4
"2009-11-21 00:54:30",1434635,3.713,136.5,9.1,1.377,10.18,103.2613,7.625,8.77,32.03,0,110,13.45,8.40,98.5
"2009-11-21 00:55:00",1434636,2.68,132.8,1.953,0.114,7.777,103.2562,7.612,8.7,32.19,0,110,13.48,8.39,94.8
"2009-11-21 00:55:30",1434637,2.529,130.6,4.373,0.15,7.696,103.2553,7.61,8.65,32.54,0,110,13.48,8.39,92.6
"2009-11-21 00:56:00",1434638,1.987,131.7,5.029,0.381,8.07,103.2553,7.61,8.64,32.79,0,110,13.49,8.39,93.7
"2009-11-21 00:56:30",1434639,2.087,132.9,2.422,0.208,8.49,103.2553,7.61,8.64,33.36,0,110,13.46,8.39,94.9
"2009-11-21 00:57:00",1434640,3.505,138.2,4.775,1.135,12.47,103.2553,7.61,8.96,33.7,0,110,13.46,8.39,100.2
"2009-11-21 00:57:30",1434641,4.317,142.4,3.295,0.918,13.17,103.2553,7.61,8.95,33.36,0,110,13.46,8.39,104.4
"2009-11-21 00:58:00",1434642,4.018,136.9,7.35,1.238,11.17,103.2491,7.594,8.75,32.65,0,110,13.46,8.37,98.9
"2009-11-21 00:58:30",1434643,2.925,129.2,4.289,0.88,8.84,103.2288,7.542,8.74,32.56,0,110,13.46,8.32,91.2
"2009-11-21 00:59:00",1434644,2.369,127.2,4.572,0.186,7.523,103.222,7.525,8.6,32.82,0,110,13.48,8.30,89.2
"2009-11-21 00:59:30",1434645,1.983,131.7,4.175,0.132,7.613,103.2214,7.523,8.58,32.77,0,110,13.48,8.30,93.7
"2009-11-21 01:00:00",1434646,1.745,132,2.033,0.147,8.23,103.2214,7.523,8.57,32.88,0,110,13.48,8.30,94.0
"2009-11-21 01:00:30",1434647,3.401,139.2,8.51,1.325,11.37,103.2214,7.523,8.71,32.88,0,109.9,13.45,8.30,101.2
"2009-11-21 01:01:00",1434648,4.179,143.8,6.964,0.969,12.95,103.22,7.52,8.84,33.23,0,110,13.45,8.30,105.8
"2009-11-21 01:01:30",1434649,4.016,137.4,6.118,0.952,12.67,103.2067,7.486,8.79,33.48,0,109.9,13.45,8.26,99.4
"2009-11-21 01:02:00",1434650,2.354,143.7,11.99,1.24,10.17,103.1923,7.449,8.73,33.6,0,109.9,13.45,8.23,105.7
"2009-11-21 01:02:30",1434651,1.224,126.5,17.76,0.968,7.513,103.1875,7.437,8.5,34.05,0,109.9,13.45,8.21,88.5
"2009-11-21 01:03:00",1434652,1.016,104.6,12.41,0.122,6.921,103.1875,7.437,8.49,34.54,0,109.9,13.48,8.21,66.6
"2009-11-21 01:03:30",1434653,1.279,98.4,7.451,0.264,7.06,103.1858,7.432,8.48,34.95,0,109.9,13.48,8.21,60.4
"2009-11-21 01:04:00",1434654,1.035,109.6,13.97,0.256,7.363,103.1762,7.408,8.47,35.36,0,109.9,13.49,8.19,71.6
"2009-11-21 01:04:30",1434655,0.584,107.7,8.95,0.135,7.886,103.1559,7.356,8.44,35.32,0,109.9,13.5,8.13,69.7
"2009-11-21 01:05:00",1434656,1.879,130.4,10.64,1.236,10.21,103.1536,7.35,8.5,34.93,0,109.9,13.46,8.13,92.4
"2009-11-21 01:05:30",1434657,2.138,124,10.23,1.372,10.45,103.1536,7.35,8.53,34.76,0,109.9,13.47,8.13,86.0
"2009-11-21 01:06:00",1434658,2.549,130.5,9.02,1.259,11.44,103.1528,7.348,8.64,34.9,0,109.9,13.47,8.13,92.5
"2009-11-21 01:06:30",1434659,2.313,135.8,9.14,1.273,11.01,103.1369,7.308,8.56,34.58,0,109.9,13.47,8.09,97.8
"2009-11-21 01:07:00",1434660,1.57,117.5,10.62,0.963,8.02,103.1222,7.27,8.46,34.74,0,109.9,13.47,8.05,79.5
"2009-11-21 01:07:30",1434661,1.2,123.5,5.624,0.619,7.109,103.1197,7.263,8.4,35.05,0,109.9,13.46,8.04,85.5
"2009-11-21 01:08:00",1434662,0.876,110.3,5.511,0.107,6.673,103.1189,7.261,8.33,35.22,0,109.9,13.5,8.04,72.3
"2009-11-21 01:08:30",1434663,0.68,117.9,7.238,0.085,7.006,103.0991,7.211,8.3,35.32,0,109.9,13.5,7.99,79.9
"2009-11-21 01:09:00",1434664,0.74,121.1,8.95,0.185,7.238,103.0858,7.177,8.29,35.46,0,109.9,13.5,7.95,83.1
"2009-11-21 01:09:30",1434665,0.694,140.8,9.76,0.124,7.62,103.0858,7.177,8.28,35.58,0,109.9,13.51,7.95,102.8
"2009-11-21 01:10:00",1434666,1.321,119.6,4.751,0.765,8.05,103.0818,7.167,8.33,35.83,0,109.9,13.47,7.94,81.6
"2009-11-21 01:10:30",1434667,2.603,134,6.657,1.202,11.71,103.0595,7.11,8.45,36.11,0,109.9,13.47,7.89,96.0
"2009-11-21 01:11:00",1434668,1.656,90.2,24.31,1.218,10.28,103.0519,7.09,8.4,36.34,0,109.9,13.47,7.87,52.2
"2009-11-21 01:11:30",1434669,2.077,86.7,11.62,1.264,10.45,103.051,7.088,8.39,36.67,0,109.9,13.47,7.86,48.7
"2009-11-21 01:12:00",1434670,1.489,46.33,13,1.242,9.69,103.0344,7.045,8.36,36.87,0,109.9,13.47,7.82,8.3
"2009-11-21 01:12:30",1434671,0.364,51.31,16.14,0.103,6.291,103.018,7.004,8.15,37.06,0,109.9,13.51,7.78,13.3
"2009-11-21 01:13:00",1434672,0.543,72.51,14.63,0.16,6.391,103.0183,7.004,8.13,36.86,0,109.9,13.51,7.78,34.5
"2009-11-21 01:13:30",1434673,0.882,103.9,6.45,0.093,6.52,103.0106,6.985,8.09,36.9,0,109.9,13.51,7.76,65.9
"2009-11-21 01:14:00",1434674,0.737,101.2,13.63,0.159,7.001,102.9892,6.93,8.08,36.63,0,109.9,13.51,7.71,63.2
"2009-11-21 01:14:30",1434675,1.036,95.1,6.921,0.287,7.589,102.9867,6.924,8.04,36.58,0,109.9,13.51,7.70,57.1
"2009-11-21 01:15:00",1434676,1.149,80,9.67,0.182,7.95,102.9876,6.926,8.04,36.88,0,109.9,13.51,7.70,42.0
"2009-11-21 01:15:30",1434677,2.155,88,8.19,1.265,10.54,102.9636,6.865,8.26,38.04,0,109.9,13.47,7.64,50.0
"2009-11-21 01:16:00",1434678,2.288,78.24,12.7,1.258,10.96,102.9589,6.852,8.2,38.03,0,109.9,13.47,7.63,40.2
"2009-11-21 01:16:30",1434679,2.609,64.91,8.51,1.282,10.81,102.9592,6.853,8.19,38.19,0,109.9,13.47,7.63,26.9
"2009-11-21 01:17:00",1434680,1.996,54,11.83,1.285,8.9,102.9531,6.838,8.06,38.07,0,109.9,13.47,7.61,16.0
"2009-11-21 01:17:30",1434681,0.769,39.82,6.683,0.225,6.62,102.9328,6.786,7.9,38.05,0,109.9,13.5,7.56,1.8
"2009-11-21 01:18:00",1434682,0.544,26.31,7.581,0.09,6.357,102.9351,6.792,7.885,38.17,0,109.9,13.5,7.57,348.3
"2009-11-21 01:18:30",1434683,0.39,39.74,13.37,0.054,6.495,102.9315,6.783,7.869,38.08,0,109.9,13.51,7.56,1.7
"2009-11-21 01:19:00",1434684,0.47,46.81,2.974,0.047,6.913,102.9075,6.721,7.839,38.01,0,109.9,13.51,7.50,8.8
"2009-11-21 01:19:30",1434685,0.423,44.5,2.399,0.048,7.336,102.9071,6.72,7.819,37.86,0,109.9,13.51,7.50,6.5
"2009-11-21 01:20:00",1434686,0.335,34.28,6.11,0.059,7.637,102.9108,6.73,7.795,37.8,0,109.9,13.51,7.51,356.3
"2009-11-21 01:20:30",1434687,0.391,12.24,10.68,0.653,8.14,102.9018,6.707,7.823,37.81,0,109.9,13.48,7.48,334.2
"2009-11-21 01:21:00",1434688,2.253,31.47,23.08,1.163,11.79,102.8786,6.647,7.979,38.05,0,109.9,13.48,7.42,353.5
"2009-11-21 01:21:30",1434689,0.348,33.79,32.14,0.976,8.87,102.8804,6.652,7.794,37.42,0,109.9,13.48,7.43,355.8
"2009-11-21 01:22:00",1434690,1.11,215.4,73.44,1.23,9.63,102.8722,6.631,7.949,37.56,0,109.9,13.48,7.41,177.4
"2009-11-21 01:22:30",1434691,1.403,233,13.84,1.235,9.15,102.8485,6.57,7.78,37.31,0,109.9,13.48,7.35,195.0
"2009-11-21 01:23:00",1434692,0.047,199.6,10.06,0.084,6.536,102.8491,6.572,7.653,37.13,0,109.9,13.52,7.35,161.6
"2009-11-21 01:23:30",1434693,-0.05,198.9,12.68,0.037,6.216,102.8468,6.566,7.629,37.13,0,109.9,13.52,7.34,160.9
"2009-11-21 01:24:00",1434694,-0.03,210.4,12.94,0.036,5.712,102.8228,6.505,7.592,37.14,0,109.9,13.52,7.28,172.4
"2009-11-21 01:24:30",1434695,-0.035,302.4,62.16,0.054,5.836,102.8155,6.486,7.581,37.38,0,109.9,13.52,7.26,264.4
"2009-11-21 01:25:00",1434696,-0.023,14,63.74,0.057,6.129,102.8107,6.474,7.546,37.53,0,109.9,13.52,7.25,336.0
"2009-11-21 01:25:30",1434697,0.005,4.901,32.24,0.077,6.176,102.7858,6.41,7.527,37.9,0,109.9,13.52,7.18,326.9
"2009-11-21 01:26:00",1434698,0.226,21.52,13.13,0.147,6.495,102.7815,6.399,7.489,38.55,0,109.9,13.53,7.17,343.5
"2009-11-21 01:26:30",1434699,0.266,35.38,5.169,0.061,6.816,102.7813,6.399,7.465,38.71,0,109.9,13.53,7.17,357.4
"2009-11-21 01:27:00",1434700,0.305,25.98,6.131,0.134,7.353,102.7646,6.356,7.43,38.54,0,109.9,13.53,7.13,348.0
"2009-11-21 01:27:30",1434701,0.455,27.3,3.759,0.155,7.767,102.7476,6.313,7.408,38.5,0,109.9,13.53,7.09,349.3
"2009-11-21 01:28:00",1434702,1.635,42.18,13.43,1.331,10.47,102.7476,6.313,7.552,38.52,0,109.9,13.5,7.09,4.2
"2009-11-21 01:28:30",1434703,2.622,58.27,6.061,0.929,12.54,102.7278,6.262,7.65,38.53,0,109.9,13.5,7.04,20.3
"2009-11-21 01:29:00",1434704,2.526,70.18,7.431,1.035,11.91,102.7137,6.226,7.616,38.47,0,109.9,13.5,7.00,32.2
"2009-11-21 01:29:30",1434705,1.036,60.71,7.421,1.054,8.52,102.7123,6.222,7.46,38.42,0,109.9,13.5,7.00,22.7
"2009-11-21 01:30:00",1434706,0.78,51.61,5.508,0.154,6.308,102.6908,6.168,7.28,38.42,0,109.9,13.53,6.94,13.6
"2009-11-21 01:30:30",1434707,1,47.15,4.072,0.082,6.081,102.6798,6.139,7.237,38.68,0,109.9,13.53,6.91,9.2
"2009-11-21 01:31:00",1434708,0.92,43.64,1.829,0.064,6.233,102.6707,6.116,7.212,39.04,0,109.9,13.53,6.89,5.6
"2009-11-21 01:31:30",1434709,0.876,37.04,3.662,0.091,6.64,102.6464,6.054,7.201,39.27,0,109.9,13.53,6.83,359.0
"2009-11-21 01:32:00",1434710,0.698,38.65,6.258,0.106,7.196,102.6459,6.053,7.162,39.32,0,109.9,13.53,6.83,0.7
"2009-11-21 01:32:30",1434711,1.811,49.15,7.799,1.218,9.66,102.634,6.022,7.187,39.33,0,109.9,13.5,6.80,11.2
"2009-11-21 01:33:00",1434712,0.629,35.65,8.43,0.8,8.88,102.6128,5.968,7.25,39.47,0,109.9,13.5,6.74,357.6
"2009-11-21 01:33:30",1434713,2.309,50.01,7.546,1.289,11.28,102.6117,5.965,7.277,39.54,0,109.9,13.5,6.74,12.0
"2009-11-21 01:34:00",1434714,2.796,54.16,7.847,0.805,11.86,102.593,5.918,7.294,39.62,0,109.8,13.5,6.69,16.2
"2009-11-21 01:34:30",1434715,1.163,46.96,9.21,1.19,9.1,102.578,5.879,7.201,39.48,0,109.9,13.49,6.65,9.0
"2009-11-21 01:35:00",1434716,0.493,41.22,1.416,0.129,6.41,102.578,5.879,6.995,39.26,0,109.8,13.52,6.65,3.2
"2009-11-21 01:35:30",1434717,0.631,39.4,2.448,0.074,6.018,102.5684,5.855,6.967,39.36,0,109.8,13.52,6.63,1.4
"2009-11-21 01:36:00",1434718,0.68,35.75,3.728,0.087,6.19,102.5452,5.796,6.959,39.92,0,109.8,13.52,6.57,357.8
"2009-11-21 01:36:30",1434719,0.565,35.38,3.989,0.102,6.556,102.5441,5.793,6.945,40.49,0,109.8,13.53,6.57,357.4
"2009-11-21 01:37:00",1434720,0.561,33.05,1.794,0.079,6.931,102.5379,5.777,6.921,40.75,0,109.8,13.53,6.55,355.0
"2009-11-21 01:37:30",1434721,0.596,36.94,2.821,0.096,7.444,102.5147,5.718,6.884,41.2,0,109.8,13.53,6.49,358.9
"2009-11-21 01:38:00",1434722,1.448,48.85,6.729,1.163,9.51,102.5105,5.707,7.05,41.6,0,109.8,13.51,6.48,10.8
"2009-11-21 01:38:30",1434723,2.055,54.66,6.842,1.32,10.29,102.5113,5.709,6.995,41.36,0,109.8,13.51,6.48,16.7
"2009-11-21 01:39:00",1434724,1.324,57.07,4.891,1.055,9,102.5063,5.696,6.991,41.28,0,109.8,13.51,6.47,19.1
"2009-11-21 01:39:30",1434725,2.363,59.28,8.14,1.276,10.59,102.4905,5.656,7.058,41.34,0,109.8,13.5,6.43,21.3
"2009-11-21 01:40:00",1434726,1.658,47.91,6.678,1.18,8.43,102.4812,5.632,6.901,41.45,0,109.8,13.5,6.40,9.9
"2009-11-21 01:40:30",1434727,0.959,39.7,3.155,0.131,6.141,102.482,5.634,6.753,41.51,0,109.8,13.53,6.41,1.7
"2009-11-21 01:41:00",1434728,1.2,43.27,2.034,0.12,5.868,102.4784,5.625,6.734,41.79,0,109.8,13.53,6.40,5.3
"2009-11-21 01:41:30",1434729,1.24,56.18,6.065,0.063,6.444,102.4555,5.567,6.724,41.97,0,109.8,13.54,6.34,18.2
"2009-11-21 01:42:00",1434730,1.235,59.36,4.837,0.086,7.021,102.4501,5.553,6.692,41.89,0,109.8,13.54,6.32,21.4
"2009-11-21 01:42:30",1434731,2.194,64.86,8.27,1.242,9.84,102.453,5.56,6.891,42.13,0,109.8,13.51,6.33,26.9
"2009-11-21 01:43:00",1434732,2.738,64.69,7.157,1.301,10.51,102.4525,5.559,6.825,42.16,0,109.8,13.51,6.33,26.7
"2009-11-21 01:43:30",1434733,1.139,51,4.551,0.638,7.97,102.4412,5.53,6.644,42.02,0,109.8,13.51,6.30,13.0
"2009-11-21 01:44:00",1434734,2.439,54.54,7.082,1.253,10.11,102.4333,5.51,6.794,42.24,0,109.8,13.51,6.28,16.5
"2009-11-21 01:44:30",1434735,2.062,52.22,8.6,1.239,9.22,102.4223,5.482,6.772,42.26,0,109.8,13.51,6.25,14.2
"2009-11-21 01:45:00",1434736,0.791,45.79,6.077,0.088,6.373,102.4206,5.477,6.583,42.13,0,109.8,13.54,6.25,7.8
"2009-11-21 01:45:30",1434737,0.8,62.13,2.765,0.057,5.968,102.4223,5.482,6.585,42.4,0,109.8,13.54,6.25,24.1
"2009-11-21 01:46:00",1434738,0.675,54.3,4.419,0.167,6.086,102.424,5.486,6.572,42.6,0,109.8,13.54,6.26,16.3
"2009-11-21 01:46:30",1434739,0.785,65.15,4.681,0.058,6.64,102.4243,5.487,6.553,42.72,0,109.8,13.54,6.26,27.2
"2009-11-21 01:47:00",1434740,1.57,71.35,7.538,1.181,8.46,102.4269,5.494,6.604,42.77,0,109.8,13.51,6.26,33.3
"2009-11-21 01:47:30",1434741,2.853,75.46,6.143,1.054,11.1,102.4233,5.484,6.793,42.88,0,109.8,13.51,6.26,37.5
"2009-11-21 01:48:00",1434742,1.481,68.69,6.575,1.044,8.73,102.4155,5.464,6.667,42.76,0,109.8,13.51,6.24,30.7
"2009-11-21 01:48:30",1434743,1.016,66.23,2.723,0.043,7.224,102.3996,5.424,6.524,42.62,0,109.8,13.54,6.19,28.2
"2009-11-21 01:49:00",1434744,2.785,63.59,5.758,1.244,10.36,102.3997,5.424,6.752,42.8,0,109.8,13.5,6.19,25.6
"2009-11-21 01:49:30",1434745,2.361,57.37,7.505,1.249,9.22,102.4005,5.426,6.691,42.76,0,109.8,13.5,6.20,19.4
"2009-11-21 01:50:00",1434746,1.312,44.99,3.184,0.116,6.183,102.3994,5.423,6.482,42.65,0,109.8,13.54,6.19,7.0
"2009-11-21 01:50:30",1434747,1.441,37.55,4.206,0.17,6.029,102.4014,5.428,6.49,43.01,0,109.8,13.54,6.20,359.5